Regional Weather Roundup
Issued by NWS New Orleans/Baton Rouge, LA

Current Version | Previous Version | Text Only | Print | Product List | Glossary On
Versions: 1 2 3 4 5 6 7 8 9 10 11 12 13 14 15 16 17 18 19 20 21 22 23 24 25 26 27
000
ASUS44 KLIX 282312
RWRLIX
NEW ORLEANS REGIONAL WEATHER ROUNDUP
NATIONAL WEATHER SERVICE NEW ORLEANS LA
600 PM CDT WED SEP 28 2016

NOTE: "FAIR" INDICATES FEW OR NO CLOUDS BELOW 12,000 FEET WITH NO
      SIGNIFICANT WEATHER AND/OR OBSTRUCTIONS TO VISIBILITY.
      SKY/WX - SKY CONDITION AND SIGNIFICANT WEATHER.
      TMP - AIR TEMPERATURE.     DP    - DEWPOINT TEMPERATURE.
      RH  - RELATIVE HUMIDITY.   PRES  - PRESSURE.
      HI  - HEAT INDEX.          WCI   - WIND CHILL INDEX.

*  THESE STATIONS ARE NOT NWS OR FAA STATIONS AND ARE NOT UNDER
   NWS QUALITY CONTROL.

LAZ038-040-048-061>063-065>067-069-290000-
SOUTHEAST LOUISIANA

CITY           SKY/WX    TMP DP  RH WIND       PRES   REMARKS
N.O. AUDUBON   NOT AVBL
N.O. INTL ARPT PTCLDY    88  66  48 NW3       29.97R
N.O. LAKEFRONT CLEAR     86  66  51 NW9       29.98R
N.O. DOWNTOWN*   N/A     86  66  51 N6        29.98R
RESERVE*         N/A     87  68  52 W3        29.97S
SLIDELL        CLEAR     85  67  54 VRB3      29.96S
BATON ROUGE    MOSUNNY   85  66  53 W8        29.97S
BOOTHVILLE     PTCLDY    85  71  63 W3        29.97S
BELLE CHASSE   PTCLDY    85  68  56 W5        29.97R
BOGALUSA*        N/A     85  66  53 W5        29.98S
GALLIANO*      CLEAR     87  56  34 W7        29.97S
NEW ROADS*       N/A     84  66  54 MISG      29.98R
GONZALES*        N/A     84  69  58 W3        29.97R
HAMMOND*       CLEAR     86  63  45 NW5       29.97S
HOUMA*         MOSUNNY   84  72  65 W5        29.98R
PORT FOURCHON* PTCLDY    84  72  65 SW8       29.98S

$$

MSZ070-080>082-290000-
SOUTHERN MISSISSIPPI

CITY           SKY/WX    TMP DP  RH WIND       PRES   REMARKS
MCCOMB         CLEAR     82  65  56 W7        29.98S
GULFPORT       CLEAR     86  67  52 W6        29.95R
BILOXI         CLEAR     85  71  62 SW9       29.95S
PASCAGOULA     CLEAR     83  70  64 SW5       29.96R
STENNIS ARPT*  CLEAR     82  63  51 CALM      29.96S

$$

COASTAL OBSERVATIONS
LAKE AND NEARSHORE STATIONS

STATION/POSITION TIME  TEMP    WIND        PRES    WAVE
                       AIR SEA DIR/SP/G            HT/PER
                 (UTC) (F)     (DEG/KT/KT) (MB)    (FT/S)
PASCAGOULA       2200   85     240/ 10/ 14 1013.9
WAVELAND YACHT   2200   86 86  320/  5/  9 1014.6
GRAND ISLE       2200   86 88  240/  6/  9 1015.2
SOUTHWEST PASS   2200          320/  4/  8   N/A
NEW CANAL        2200   85 87  320/  2/  6 1014.1
SHELL BEACH      2200   84 88  320/  9/ 11 1015.0

OFFSHORE STATIONS

STATION/POSITION TIME  TEMP    WIND        PRES    WAVE
                       AIR SEA DIR/SP/G            HT/PER
                 (UTC) (F)     (DEG/KT/KT) (MB)    (FT/S)
64 S DAUPHIN ISL 2200   83 86  280/ 12/ 12 1014.5

$$





USA.gov is the U.S. government's official web portal to all federal, state and local government web resources and services.